This is the latest recevied weather packets stored in our database for station/object ED1ZAI-13. If no packets are shown the sender has not sent any weather packets the latest 10 day(s).
| Time | Temp. | Humidity | Pressure | Rain* | Wind** | Luminosity | Snow |
|---|---|---|---|---|---|---|---|
| 1788434863 | 33.89° C | 18% | 1025.2 hPa | - | - | - | - |
| 1788434265 | 34.44° C | 20% | 1025.3 hPa | - | - | - | - |
| 1788433664 | 32.22° C | 21% | 1025.4 hPa | - | - | - | - |
| 1788433064 | 33.33° C | 20% | 1025.6 hPa | - | - | - | - |
| 1788432464 | 32.78° C | 21% | 1025.6 hPa | - | - | - | - |
| 1788431863 | 32.78° C | 22% | 1025.7 hPa | - | - | - | - |
| 1788431263 | 32.78° C | 23% | 1025.7 hPa | - | - | - | - |
| 1788430665 | 30° C | 28% | 1025.7 hPa | - | - | - | - |
| 1788430064 | 28.33° C | 30% | 1025.7 hPa | - | - | - | - |
| 1788429464 | 30° C | 27% | 1025.7 hPa | - | - | - | - |
| 1788428864 | 30.56° C | 26% | 1025.8 hPa | - | - | - | - |
| 1788428264 | 33.33° C | 21% | 1025.7 hPa | - | - | - | - |
| 1788427663 | 33.33° C | 23% | 1025.8 hPa | - | - | - | - |
| 1788427065 | 33.33° C | 22% | 1025.7 hPa | - | - | - | - |
| 1788426465 | 31.11° C | 26% | 1025.7 hPa | - | - | - | - |
| 1788425864 | 30° C | 27% | 1025.6 hPa | - | - | - | - |
| 1788425277 | 30° C | 28% | 1025.6 hPa | - | - | - | - |
| 1788424664 | 28.89° C | 32% | 1025.4 hPa | - | - | - | - |
| 1788424063 | 27.22° C | 34% | 1025.2 hPa | - | - | - | - |
| 1788423464 | 23.89° C | 42% | 1023.2 hPa | - | - | - | - |
| 1788422864 | 25° C | 38% | 1024 hPa | - | - | - | - |
| 1788422264 | 26.67° C | 39% | 1024.5 hPa | - | - | - | - |
| 1788421663 | 21.67° C | 52% | 1017.8 hPa | - | - | - | - |
| 1788421063 | 19.44° C | 55% | 1015.6 hPa | - | - | - | - |
| 1788420465 | 18.33° C | 56% | 1014.4 hPa | - | - | - | - |
* Rain since midnight (hover to see other rain measurements)
** Current wind speed in m/s (hover to see current wind gust speed)